This is the latest recevied weather packets stored in our database for station/object CE3TDM-10. If no packets are shown the sender has not sent any weather packets the latest 10 day(s).
| Time | Temp. | Humidity | Pressure | Rain* | Wind** | Luminosity | Snow |
|---|---|---|---|---|---|---|---|
| 1788168707 | 23.89° C | 33% | 926.2 hPa | - | - | - | - |
| 1788167805 | 23.89° C | 33% | 926.1 hPa | - | - | - | - |
| 1788166908 | 23.89° C | 33% | 926 hPa | - | - | - | - |
| 1788166005 | 23.89° C | 33% | 926 hPa | - | - | - | - |
| 1788165107 | 23.89° C | 32% | 926 hPa | - | - | - | - |
| 1788164204 | 23.89° C | 32% | 926.1 hPa | - | - | - | - |
| 1788163307 | 23.89° C | 32% | 925.9 hPa | - | - | - | - |
| 1788162404 | 23.89° C | 32% | 925.9 hPa | - | - | - | - |
| 1788161507 | 23.89° C | 32% | 925.8 hPa | - | - | - | - |
| 1788160604 | 23.89° C | 32% | 925.7 hPa | - | - | - | - |
| 1788159704 | 24.44° C | 32% | 925.5 hPa | - | - | - | - |
| 1788157906 | 24.44° C | 32% | 925.1 hPa | - | - | - | - |
| 1788157004 | 24.44° C | 32% | 925.2 hPa | - | - | - | - |
| 1788156104 | 24.44° C | 32% | 925 hPa | - | - | - | - |
| 1788154306 | 24.44° C | 31% | 924.8 hPa | - | - | - | - |
| 1788153403 | 25° C | 31% | 924.8 hPa | - | - | - | - |
| 1788152503 | 25.56° C | 30% | 925 hPa | - | - | - | - |
| 1788148903 | 27.78° C | 29% | 924.3 hPa | - | - | - | - |
| 1788148003 | 28.33° C | 28% | 923.5 hPa | - | - | - | - |
| 1788147105 | 28.89° C | 28% | 923.3 hPa | - | - | - | - |
| 1788146218 | 29.44° C | 28% | 924.9 hPa | - | - | - | - |
| 1788145303 | 30° C | 27% | 924.6 hPa | - | - | - | - |
| 1788144403 | 31.11° C | 27% | 923.8 hPa | - | - | - | - |
| 1788142603 | 32.22° C | 27% | 924.4 hPa | - | - | - | - |
| 1788141702 | 30.56° C | 30% | 924.4 hPa | - | - | - | - |
* Rain since midnight (hover to see other rain measurements)
** Current wind speed in m/s (hover to see current wind gust speed)